Hourly Weather Roundup
Issued by NWS Central Illinois

Home | Current Version | Previous Version | Text Only | Print | Product List | Glossary On
Versions: 1 2 3 4 5 6 7 8 9 10 11 12 13 14 15 16 17 18 19 20 21 22 23 24 25 26 27 28 29 30 31 32 33 34 35 36 37 38 39 40 41 42 43 44 45 46 47 48 49 50
000
NZUS43 KILX 212310
HWRILX

AREA WEATHER ROUNDUP
NATIONAL WEATHER SERVICE, LINCOLN IL
600 PM CDT TUE OCT 21 2014


CITY           SKY/WX    TMP DP  RH WIND       PRES   REMARKS
BLOOMINGTON    CLEAR     53  40  61 NE9       30.19R
CHAMPAIGN      MOCLDY    53  43  68 NE12      30.17S
DECATUR        CLEAR     53  40  61 NE12      30.16R
FLORA          CLEAR     58  40  50 N7        30.14R
GALESBURG      CLEAR     54  39  56 E6        30.17S
JACKSONVILLE   CLEAR     57  42  56 NE6       30.15S
LACON          CLEAR     53  37  56 E6        30.18S
LAWRENCEVILLE  CLEAR     57  40  52 N9        30.14R
LITCHFIELD     CLEAR     57  38  49 NE7       30.14S
$$


CITY           SKY/WX    TMP DP  RH WIND       PRES   REMARKS
LINCOLN        CLEAR     55  38  53 NE3       30.15S
MACOMB         CLEAR     56  39  52 E6        30.19R
MATTOON        CLEAR     54  38  54 NE7       30.15R
MT CARMEL AP   CLEAR     59  41  51 N6        30.14R
OLNEY-NOBLE AP CLEAR     55  39  54 N6        30.14R
PARIS          CLOUDY    54  44  69 N7        30.17S
PEORIA         CLEAR     56  38  50 E7        30.17R
PONTIAC          N/A     51  41  67 NE10      30.20R
RANTOUL        CLOUDY    53  41  64 NE13      30.19S
ROBINSON       MOCLDY    58  41  52 NE8       30.15S
SPRINGFIELD    CLEAR     56  40  55 NE8       30.15F
TAYLORVILLE    CLEAR     55  37  50 NE8       30.14F
$$

...REGIONAL REPORTS...


CITY           SKY/WX    TMP DP  RH WIND       PRES   REMARKS
CHICAGO O`HARE CLOUDY    49  39  68 N10       30.21R
KANKAKEE       CLOUDY    50  42  74 N9        30.20S
MOLINE         CLEAR     53  38  56 E10       30.18R
MOUNT VERNON   CLEAR     59  41  51 NE6       30.13R
PITTSFIELD     CLEAR     59  42  52 NE6       30.15S HAZE
QUINCY         CLEAR     59  40  49 NE6       30.14R
ROCKFORD       PTCLDY    49  37  63 E8        30.24R
$$


CITY           SKY/WX    TMP DP  RH WIND       PRES   REMARKS
BURLINGTON     CLEAR     57  40  52 E7        30.16R
CEDAR RAPIDS   CLEAR     55  39  54 E7        30.16S
DES MOINES     CLEAR     63  43  48 E8        30.12S
KIRKSVILLE     CLEAR     61  45  55 E6        30.14R
OTTUMWA        NOT AVBL
ST LOUIS       CLEAR     64  42  44 NE8       30.12S
$$


CITY           SKY/WX    TMP DP  RH WIND       PRES   REMARKS
TERRE HAUTE    CLOUDY    55  40  56 N7        30.15R
EVANSVILLE     CLEAR     60  40  47 N8        30.12R
INDIANAPOLIS   MOCLDY    53  42  66 N8        30.12R
LAFAYETTE      CLEAR     50  40  68 N8        30.15S
MADISON        PTCLDY    43  36  76 NE6       30.24S
MILWAUKEE      PTCLDY    46  38  73 N7        30.24R
$$





USA.gov is the U.S. government's official web portal to all federal, state and local government web resources and services.